| time (UTC) | temp C | wind direction | speed KPH | gust KPH | rain 1hr cm | rain 24hr cm | rain mn cm | humidity % | barometer mb |
| 20260503203044 | 4 | 286 | 3.2 | 4.8 | 0.00 | 0.00 | 0.00 | 74 | 1018.8 |
| 20260503201547 | 5 | 286 | 3.2 | 6.4 | 0.00 | 0.00 | 0.00 | 72 | 1018.8 |
| 20260503200057 | 6 | 0 | 0.0 | 4.8 | 0.00 | 0.00 | 0.00 | 71 | 1018.9 |
| 20260503194549 | 6 | 0 | 0.0 | 6.4 | 0.00 | 0.00 | 0.00 | 70 | 1018.8 |
| 20260503193052 | 6 | 294 | 3.2 | 6.4 | 0.00 | 0.00 | 0.00 | 68 | 1018.6 |
| 20260503191550 | 8 | 317 | 4.8 | 9.7 | 0.00 | 0.00 | 0.00 | 62 | 1018.6 |
| 20260503190052 | 12 | 114 | 1.6 | 4.8 | 0.00 | 0.00 | 0.00 | 51 | 1018.5 |
| 20260503184557 | 13 | 140 | 1.6 | 4.8 | 0.00 | 0.00 | 0.00 | 46 | 1018.4 |
| 20260503183107 | 14 | 0 | 1.6 | 8.0 | 0.00 | 0.00 | 0.00 | 43 | 1018.3 |
| 20260503181548 | 14 | 229 | 1.6 | 4.8 | 0.00 | 0.00 | 0.00 | 42 | 1018.1 |
| 20260503180050 | 15 | 255 | 4.8 | 12.9 | 0.00 | 0.00 | 0.00 | 43 | 1018.0 |
| 20260503174550 | 15 | 5 | 6.4 | 12.9 | 0.00 | 0.00 | 0.00 | 43 | 1017.8 |
| 20260503173109 | 16 | 184 | 1.6 | 16.1 | 0.00 | 0.00 | 0.00 | 40 | 1017.8 |
| 20260503171545 | 17 | 101 | 8.0 | 17.7 | 0.00 | 0.00 | 0.00 | 40 | 1017.8 |
| 20260503081542 | 17 | 96 | 14.5 | 24.1 | 0.00 | 0.00 | 0.00 | 43 | 1021.8 |
| 20260503071551 | 16 | 205 | 3.2 | 11.3 | 0.00 | 0.00 | 0.00 | 47 | 1021.9 |
| 20260503054549 | 10 | 146 | 0.0 | 3.2 | 0.00 | 0.00 | 0.00 | 66 | 1021.9 |
| 20260503053048 | 9 | 146 | 0.0 | 4.8 | 0.00 | 0.00 | 0.00 | 70 | 1022.0 |
| 20260503051552 | 7 | 0 | 3.2 | 8.0 | 0.00 | 0.00 | 0.00 | 75 | 1022.0 |
| 20260503050046 | 6 | 160 | 1.6 | 6.4 | 0.00 | 0.00 | 0.00 | 83 | 1021.9 |
| 20260503044545 | 2 | 0 | 0.0 | 3.2 | 0.00 | 0.00 | 0.00 | 87 | 1021.9 |
| 20260503043050 | 0 | 0 | 1.6 | 3.2 | 0.00 | 0.00 | 0.00 | 87 | 1022.0 |
| 20260503041604 | -1 | 0 | 0.0 | 1.6 | 0.00 | 0.00 | 0.00 | 86 | 1022.1 |
| 20260503040055 | -1 | 0 | 0.0 | 0.0 | 0.00 | 0.00 | 0.00 | 86 | 1022.1 |
| 20260503034604 | -1 | 0 | 0.0 | 3.2 | 0.00 | 0.00 | 0.00 | 85 | 1022.0 |
| 20260503033049 | -1 | 0 | 0.0 | 3.2 | 0.00 | 0.00 | 0.00 | 85 | 1021.9 |
| 20260503031545 | -1 | 0 | 0.0 | 3.2 | 0.00 | 0.00 | 0.00 | 85 | 1021.9 |
| 20260503030052 | -1 | 287 | 1.6 | 3.2 | 0.00 | 0.00 | 0.00 | 85 | 1021.9 |
| 20260503024553 | -1 | 287 | 1.6 | 4.8 | 0.00 | 0.00 | 0.00 | 84 | 1021.8 |
| 20260503023047 | -1 | 288 | 1.6 | 3.2 | 0.00 | 0.00 | 0.00 | 83 | 1021.8 |
| 20260503021547 | 0 | 0 | 0.0 | 3.2 | 0.00 | 0.00 | 0.00 | 84 | 1021.8 |
| 20260503020046 | 0 | 0 | 0.0 | 3.2 | 0.00 | 0.00 | 0.00 | 83 | 1021.8 |
| 20260503014549 | 0 | 287 | 1.6 | 3.2 | 0.00 | 0.00 | 0.00 | 83 | 1021.8 |
| 20260503013051 | 0 | 288 | 1.6 | 3.2 | 0.00 | 0.00 | 0.00 | 83 | 1021.9 |
| 20260503011540 | 0 | 0 | 0.0 | 0.0 | 0.00 | 0.00 | 0.00 | 82 | 1021.8 |
| 20260503010048 | 0 | 0 | 0.0 | 1.6 | 0.00 | 0.00 | 0.00 | 81 | 1021.9 |
| 20260503004546 | 1 | 0 | 0.0 | 1.6 | 0.00 | 0.00 | 0.00 | 81 | 1021.8 |
| 20260503003046 | 1 | 0 | 0.0 | 0.0 | 0.00 | 0.00 | 0.00 | 81 | 1021.9 |
| 20260503001542 | 1 | 0 | 0.0 | 0.0 | 0.00 | 0.00 | 0.00 | 82 | 1021.8 |
| 20260503000041 | 1 | 0 | 0.0 | 4.8 | 0.00 | 0.00 | 0.00 | 82 | 1022.0 |
| 20260502234545 | 1 | 288 | 3.2 | 4.8 | 0.00 | 0.00 | 0.00 | 82 | 1022.0 |
| 20260502233045 | 1 | 0 | 0.0 | 3.2 | 0.00 | 0.00 | 0.00 | 82 | 1022.1 |
| 20260502231552 | 1 | 0 | 0.0 | 0.0 | 0.00 | 0.00 | 0.00 | 82 | 1022.2 |
| 20260502230044 | 1 | 0 | 0.0 | 3.2 | 0.00 | 0.00 | 0.00 | 81 | 1022.4 |
| 20260502224543 | 1 | 304 | 0.0 | 4.8 | 0.00 | 0.00 | 0.00 | 80 | 1022.5 |
| 20260502223049 | 1 | 0 | 0.0 | 3.2 | 0.00 | 0.00 | 0.00 | 80 | 1022.5 |
| 20260502221546 | 1 | 0 | 0.0 | 4.8 | 0.00 | 0.00 | 0.00 | 79 | 1022.5 |
| 20260502214544 | 2 | 304 | 4.8 | 6.4 | 0.00 | 0.00 | 0.00 | 77 | 1022.6 |
| 20260502213045 | 3 | 299 | 3.2 | 8.0 | 0.00 | 0.00 | 0.00 | 77 | 1022.6 |
| 20260502211551 | 3 | 292 | 3.2 | 9.7 | 0.00 | 0.00 | 0.00 | 76 | 1022.6 |
| 20260502210056 | 4 | 214 | 3.2 | 6.4 | 0.00 | 0.00 | 0.00 | 73 | 1022.6 |
| 20260502204547 | 5 | 150 | 0.0 | 4.8 | 0.00 | 0.00 | 0.00 | 73 | 1022.4 |